Location: Carrières
(48.9495°N, 2.0407°E)
Time: 00:34:21
(UTC+00:00)

Vanguard 2 Rocket - Visible Passes

Search period start: 17 April 2024 00:00
Search period end: 27 April 2024 00:00
Orbit: 555 x 3307 km, 32.9° (Epoch: 16 April)

Date Brightness Start Highest point End Pass type
(mag) Time Alt. Az. Time Alt. Az. Time Alt. Az.
17 Apr 9.4 01:59:37 10° WSW 02:16:53 41° SSW 02:29:27 10° SE visible
17 Apr 9.7 04:19:00 10° W 04:30:05 21° SW 04:38:26 10° S visible
17 Apr 10.0 20:28:34 10° SSW 20:42:30 28° SE 20:57:32 10° E visible
17 Apr 9.6 22:39:58 10° SW 22:57:38 44° SSE 23:14:07 10° ESE visible
18 Apr 9.5 00:55:13 10° WSW 01:13:30 45° S 01:27:47 10° SE visible
18 Apr 9.6 03:13:13 10° W 03:27:48 30° SW 03:38:30 10° SSE visible
18 Apr 10.2 19:28:20 10° S 19:39:34 21° SE 19:52:09 10° E visible
18 Apr 9.7 21:37:27 10° SW 21:53:51 40° SSE 22:10:44 10° E visible
18 Apr 9.5 23:51:20 10° WSW 00:09:44 47° S 00:25:34 10° ESE visible
19 Apr 9.5 02:08:09 10° W 02:25:00 37° SSW 02:37:40 10° SE visible
19 Apr 9.8 20:35:41 10° SSW 20:50:19 34° SSE 21:06:42 10° E visible
19 Apr 9.6 22:48:01 10° WSW 23:05:48 47° S 23:22:49 10° ESE visible
20 Apr 9.5 01:03:39 10° WSW 01:21:40 43° SSW 01:36:10 10° SE visible
20 Apr 9.8 03:22:17 10° W 03:35:37 25° SW 03:45:58 10° S visible
20 Apr 10.0 19:34:47 10° S 19:47:12 27° SE 20:01:51 10° E visible
20 Apr 9.6 21:45:20 10° SW 22:01:53 44° SSE 22:19:28 10° ESE visible
20 Apr 9.5 23:59:41 10° WSW 00:17:55 47° S 00:34:02 10° ESE visible
21 Apr 9.7 02:16:52 10° W 02:32:55 33° SSW 02:45:32 10° SSE visible
21 Apr 9.7 20:43:18 10° SW 20:58:12 39° SSE 21:15:32 10° E visible
21 Apr 9.6 22:56:18 10° WSW 23:13:57 48° S 23:31:19 10° ESE visible
22 Apr 9.6 01:12:12 10° W 01:29:40 39° SSW 01:44:15 10° SE visible
22 Apr 10.0 03:31:54 10° W 03:43:14 20° SW 03:52:37 10° S visible
22 Apr 9.8 19:41:59 10° SSW 19:54:55 32° SSE 20:10:56 10° E visible
22 Apr 9.6 21:53:29 10° WSW 22:09:57 47° S 22:28:01 10° ESE visible
23 Apr 9.6 00:08:10 10° WSW 00:26:00 44° SSW 00:42:16 10° SE visible
23 Apr 9.8 02:25:52 10° W 02:40:39 27° SW 02:52:52 10° SSE visible
23 Apr 9.7 20:51:16 10° SW 21:06:10 43° SSE 21:24:08 10° E visible
23 Apr 9.6 23:04:43 10° WSW 23:22:04 47° S 23:39:37 10° ESE visible
24 Apr 9.7 01:20:57 10° W 01:37:33 35° SSW 01:51:57 10° SSE visible
24 Apr 10.2 03:42:46 10° WSW 03:50:43 14° SW 03:57:47 10° SSW visible
24 Apr 9.7 19:49:41 10° SSW 20:02:45 37° SSE 20:19:39 10° E visible
24 Apr 9.6 22:01:50 10° WSW 22:18:04 47° S 22:36:21 10° ESE visible
25 Apr 9.7 00:16:47 10° W 00:34:00 41° SSW 00:50:10 10° SE visible
25 Apr 10.0 02:35:21 10° W 02:48:14 22° SW 02:59:27 10° S visible
25 Apr 9.6 20:59:30 10° SW 21:14:12 45° S 21:32:31 10° ESE visible
25 Apr 9.6 23:13:17 10° WSW 23:30:08 45° SSW 23:47:41 10° SE visible
26 Apr 9.9 01:29:56 10° W 01:45:16 29° SW 01:59:07 10° SSE visible
26 Apr 9.6 19:57:44 10° SW 20:10:42 41° SSE 20:28:07 10° E visible
26 Apr 9.6 22:10:20 10° WSW 22:26:10 47° S 22:39:36 21° SE visible
